Time,TemperatureF,DewpointF,PressureIn,WindDirection,WindDirectionDegrees,WindSpeedMPH,WindSpeedGustMPH,Humidity,HourlyPrecipIn,Conditions,Clouds,dailyrainin,SoftwareType,DateUTC
2013-01-11 00:03:00,42.4,25.0,30.42,SSE,151,0.0,2.0,50,0.00,,,0.00,weatherlink.com 1.10,2013-01-11 05:03:00,
2013-01-11 00:18:00,42.4,25.0,30.41,SSE,151,0.0,2.0,50,0.00,,,0.00,weatherlink.com 1.10,2013-01-11 05:18:00,
2013-01-11 00:33:00,42.1,25.0,30.41,SSE,151,1.0,1.0,51,0.00,,,0.00,weatherlink.com 1.10,2013-01-11 05:33:00,
2013-01-11 00:48:00,42.0,25.0,30.41,ESE,111,0.0,1.0,52,0.00,,,0.00,weatherlink.com 1.10,2013-01-11 05:48:00,
2013-01-11 01:03:00,41.4,25.0,30.41,SSE,166,0.0,3.0,53,0.00,,,0.00,weatherlink.com 1.10,2013-01-11 06:03:00,
2013-01-11 01:18:00,41.4,25.0,30.41,SSE,166,0.0,2.0,53,0.00,,,0.00,weatherlink.com 1.10,2013-01-11 06:18:00,
2013-01-11 01:33:00,41.4,26.0,30.40,SE,134,0.0,0.0,54,0.00,,,0.00,weatherlink.com 1.10,2013-01-11 06:33:00,
2013-01-11 01:48:00,41.2,26.0,30.40,ESE,105,1.0,1.0,54,0.00,,,0.00,weatherlink.com 1.10,2013-01-11 06:48:00,
2013-01-11 02:03:00,40.7,25.0,30.40,SSE,163,0.0,2.0,54,0.00,,,0.00,weatherlink.com 1.10,2013-01-11 07:03:00,
2013-01-11 02:18:00,40.2,25.0,30.40,SSE,165,1.0,2.0,55,0.00,,,0.00,weatherlink.com 1.10,2013-01-11 07:18:00,
2013-01-11 02:33:00,39.9,25.0,30.40,ENE,62,0.0,1.0,55,0.00,,,0.00,weatherlink.com 1.10,2013-01-11 07:33:00,
2013-01-11 02:48:00,39.8,25.0,30.39,East,80,1.0,2.0,56,0.00,,,0.00,weatherlink.com 1.10,2013-01-11 07:48:00,
2013-01-11 03:03:00,39.7,25.0,30.39,ESE,114,0.0,2.0,57,0.00,,,0.00,weatherlink.com 1.10,2013-01-11 08:03:00,
2013-01-11 03:18:00,39.5,25.0,30.39,South,169,0.0,4.0,57,0.00,,,0.00,weatherlink.com 1.10,2013-01-11 08:18:00,
2013-01-11 03:34:00,39.1,25.0,30.39,SSW,194,0.0,4.0,58,0.00,,,0.00,weatherlink.com 1.10,2013-01-11 08:34:00,
2013-01-11 03:49:00,39.5,25.0,30.37,ESE,113,0.0,2.0,57,0.00,,,0.00,weatherlink.com 1.10,2013-01-11 08:49:00,
2013-01-11 04:04:00,39.4,25.0,30.37,ENE,57,0.0,2.0,57,0.00,,,0.00,weatherlink.com 1.10,2013-01-11 09:04:00,
2013-01-11 04:19:00,39.4,26.0,30.37,SW,236,0.0,2.0,58,0.00,,,0.00,weatherlink.com 1.10,2013-01-11 09:19:00,
2013-01-11 04:34:00,39.5,25.0,30.37,NNW,342,0.0,4.0,57,0.00,,,0.00,weatherlink.com 1.10,2013-01-11 09:34:00,
2013-01-11 04:49:00,39.5,25.0,30.37,North,355,0.0,3.0,57,0.00,,,0.00,weatherlink.com 1.10,2013-01-11 09:49:00,
2013-01-11 05:04:00,39.5,25.0,30.36,NW,325,0.0,3.0,57,0.00,,,0.00,weatherlink.com 1.10,2013-01-11 10:04:00,
2013-01-11 05:19:00,39.2,25.0,30.35,NNE,17,0.0,2.0,58,0.00,,,0.00,weatherlink.com 1.10,2013-01-11 10:19:00,
2013-01-11 05:34:00,38.9,25.0,30.35,NNE,32,3.0,4.0,59,0.00,,,0.00,weatherlink.com 1.10,2013-01-11 10:34:00,
2013-01-11 05:49:00,38.4,25.0,30.34,NE,40,2.0,3.0,60,0.00,,,0.00,weatherlink.com 1.10,2013-01-11 10:49:00,
2013-01-11 06:04:00,38.2,26.0,30.34,ENE,61,0.0,1.0,61,0.00,,,0.00,weatherlink.com 1.10,2013-01-11 11:04:00,
2013-01-11 06:19:00,37.7,25.0,30.34,ENE,71,1.0,2.0,61,0.00,,,0.00,weatherlink.com 1.10,2013-01-11 11:19:00,
2013-01-11 06:34:00,38.3,26.0,30.31,ENE,63,0.0,4.0,61,0.00,,,0.00,weatherlink.com 1.10,2013-01-11 11:34:00,
2013-01-11 06:49:00,38.2,25.0,30.33,East,96,0.0,0.0,60,0.00,,,0.00,weatherlink.com 1.10,2013-01-11 11:49:00,
2013-01-11 07:04:00,38.6,25.0,30.33,NE,49,1.0,4.0,59,0.00,,,0.00,weatherlink.com 1.10,2013-01-11 12:04:00,
2013-01-11 07:19:00,39.8,25.0,30.32,SW,231,3.0,4.0,56,0.00,,,0.00,weatherlink.com 1.10,2013-01-11 12:19:00,
2013-01-11 07:34:00,40.1,25.0,30.32,NW,309,0.0,11.0,55,0.00,,,0.00,weatherlink.com 1.10,2013-01-11 12:34:00,
2013-01-11 07:49:00,40.5,25.0,30.33,NW,319,0.0,4.0,55,0.00,,,0.00,weatherlink.com 1.10,2013-01-11 12:49:00,
2013-01-11 08:04:00,40.6,25.0,30.33,NW,325,1.0,5.0,54,0.00,,,0.00,weatherlink.com 1.10,2013-01-11 13:04:00,
2013-01-11 08:19:00,40.7,25.0,30.34,NE,55,4.0,5.0,54,0.00,,,0.00,weatherlink.com 1.10,2013-01-11 13:19:00,
2013-01-11 08:34:00,40.7,25.0,30.33,South,181,2.0,7.0,54,0.00,,,0.00,weatherlink.com 1.10,2013-01-11 13:34:00,
2013-01-11 08:49:00,41.1,26.0,30.33,ENE,63,1.0,2.0,56,0.00,,,0.00,weatherlink.com 1.10,2013-01-11 13:49:00,
2013-01-11 09:04:00,41.9,27.0,30.32,NNE,24,5.0,8.0,57,0.00,,,0.00,weatherlink.com 1.10,2013-01-11 14:04:00,
2013-01-11 09:19:00,41.8,28.0,30.31,NW,325,5.0,11.0,58,0.00,,,0.00,weatherlink.com 1.10,2013-01-11 14:19:00,
2013-01-11 09:34:00,41.7,27.0,30.31,ESE,105,4.0,11.0,56,0.00,,,0.00,weatherlink.com 1.10,2013-01-11 14:34:00,
2013-01-11 09:49:00,41.4,27.0,30.29,NNE,19,1.0,9.0,56,0.00,,,0.00,weatherlink.com 1.10,2013-01-11 14:49:00,
2013-01-11 10:04:00,41.0,29.0,30.28,West,278,0.0,11.0,62,0.00,,,0.00,weatherlink.com 1.10,2013-01-11 15:04:00,
2013-01-11 10:19:00,41.1,30.0,30.28,SSE,162,4.0,7.0,66,0.00,,,0.00,weatherlink.com 1.10,2013-01-11 15:19:00,
2013-01-11 10:34:00,40.9,32.0,30.27,NW,321,2.0,7.0,71,0.00,,,0.00,weatherlink.com 1.10,2013-01-11 15:34:00,
2013-01-11 10:49:00,40.8,33.0,30.26,SW,234,1.0,5.0,74,0.00,,,0.00,weatherlink.com 1.10,2013-01-11 15:49:00,
2013-01-11 11:05:00,41.2,34.0,30.25,WSW,244,1.0,3.0,76,0.00,,,0.00,weatherlink.com 1.10,2013-01-11 16:05:00,
2013-01-11 11:20:00,41.3,34.0,30.23,WNW,288,0.0,4.0,76,0.00,,,0.00,weatherlink.com 1.10,2013-01-11 16:20:00,
2013-01-11 11:35:00,41.6,35.0,30.22,NNW,348,2.0,7.0,77,0.00,,,0.00,weatherlink.com 1.10,2013-01-11 16:35:00,
2013-01-11 11:50:00,42.5,35.0,30.20,WNW,299,3.0,5.0,75,0.00,,,0.00,weatherlink.com 1.10,2013-01-11 16:50:00,
2013-01-11 12:05:00,42.4,35.0,30.19,NW,323,2.0,8.0,74,0.00,,,0.00,weatherlink.com 1.10,2013-01-11 17:05:00,
2013-01-11 12:20:00,42.3,35.0,30.18,South,171,7.0,9.0,74,0.00,,,0.00,weatherlink.com 1.10,2013-01-11 17:20:00,
2013-01-11 12:35:00,42.1,35.0,30.16,SSW,192,1.0,8.0,76,0.00,,,0.00,weatherlink.com 1.10,2013-01-11 17:35:00,
2013-01-11 12:50:00,43.8,39.0,30.16,NNW,348,3.0,13.0,84,0.00,,,0.00,weatherlink.com 1.10,2013-01-11 17:50:00,
2013-01-11 13:05:00,44.9,40.0,30.14,ESE,107,4.0,12.0,83,0.00,,,0.00,weatherlink.com 1.10,2013-01-11 18:05:00,
2013-01-11 13:20:00,44.7,41.0,30.14,ENE,69,4.0,11.0,85,0.00,,,0.00,weatherlink.com 1.10,2013-01-11 18:20:00,
2013-01-11 13:35:00,44.4,41.0,30.13,ENE,58,5.0,9.0,87,0.00,,,0.00,weatherlink.com 1.10,2013-01-11 18:35:00,
2013-01-11 13:50:00,43.7,41.0,30.13,ESE,118,4.0,12.0,89,0.00,,,0.00,weatherlink.com 1.10,2013-01-11 18:50:00,
2013-01-11 14:05:00,43.6,41.0,30.12,ENE,57,3.0,9.0,90,0.00,,,0.00,weatherlink.com 1.10,2013-01-11 19:05:00,
2013-01-11 14:20:00,43.6,41.0,30.11,South,186,3.0,8.0,89,0.00,,,0.00,weatherlink.com 1.10,2013-01-11 19:20:00,
2013-01-11 14:35:00,42.8,40.0,30.12,NNW,348,0.0,7.0,89,0.00,,,0.00,weatherlink.com 1.10,2013-01-11 19:35:00,
2013-01-11 14:50:00,43.2,41.0,30.11,North,11,3.0,6.0,91,0.00,,,0.00,weatherlink.com 1.10,2013-01-11 19:50:00,
2013-01-11 15:05:00,43.8,41.0,30.10,West,261,0.0,7.0,91,0.00,,,0.00,weatherlink.com 1.10,2013-01-11 20:05:00,
2013-01-11 15:20:00,43.6,41.0,30.10,SSW,196,4.0,5.0,91,0.00,,,0.00,weatherlink.com 1.10,2013-01-11 20:20:00,
2013-01-11 15:35:00,43.7,42.0,30.10,NW,324,1.0,5.0,92,0.01,,,0.01,weatherlink.com 1.10,2013-01-11 20:35:00,
2013-01-11 15:50:00,44.0,42.0,30.11,WNW,293,1.0,7.0,93,0.01,,,0.01,weatherlink.com 1.10,2013-01-11 20:50:00,
2013-01-11 16:05:00,44.0,42.0,30.09,SSW,204,2.0,13.0,93,0.01,,,0.01,weatherlink.com 1.10,2013-01-11 21:05:00,
2013-01-11 16:20:00,45.1,43.0,30.09,South,173,5.0,16.0,93,0.01,,,0.01,weatherlink.com 1.10,2013-01-11 21:20:00,
2013-01-11 16:35:00,46.2,44.0,30.08,South,191,12.0,20.0,93,0.00,,,0.01,weatherlink.com 1.10,2013-01-11 21:35:00,
2013-01-11 16:50:00,46.1,44.0,30.09,West,259,8.0,21.0,92,0.00,,,0.01,weatherlink.com 1.10,2013-01-11 21:50:00,
2013-01-11 17:05:00,47.0,45.0,30.08,North,355,6.0,32.0,94,0.00,,,0.01,weatherlink.com 1.10,2013-01-11 22:05:00,
2013-01-11 17:20:00,47.0,45.0,30.08,SW,234,11.0,25.0,92,0.00,,,0.01,weatherlink.com 1.10,2013-01-11 22:20:00,
2013-01-11 17:35:00,46.8,44.0,30.08,SSE,159,8.0,19.0,91,0.00,,,0.01,weatherlink.com 1.10,2013-01-11 22:35:00,
2013-01-11 17:50:00,45.8,43.0,30.07,West,272,4.0,33.0,91,0.00,,,0.01,weatherlink.com 1.10,2013-01-11 22:50:00,
2013-01-11 18:05:00,45.5,44.0,30.07,SW,217,19.0,19.0,93,0.00,,,0.01,weatherlink.com 1.10,2013-01-11 23:05:00,
2013-01-11 18:20:00,45.9,44.0,30.07,WNW,286,5.0,23.0,94,0.00,,,0.01,weatherlink.com 1.10,2013-01-11 23:20:00,
2013-01-11 18:35:00,45.8,44.0,30.08,WSW,245,11.0,27.0,93,0.00,,,0.01,weatherlink.com 1.10,2013-01-11 23:35:00,
2013-01-11 18:50:00,45.4,44.0,30.08,SSW,213,9.0,24.0,93,0.00,,,0.01,weatherlink.com 1.10,2013-01-11 23:50:00,
2013-01-11 19:05:00,44.2,43.0,30.09,SW,231,13.0,20.0,94,0.00,,,0.01,weatherlink.com 1.10,2013-01-12 00:05:00,
2013-01-11 19:20:00,44.3,43.0,30.08,SW,219,8.0,22.0,95,0.00,,,0.01,weatherlink.com 1.10,2013-01-12 00:20:00,
2013-01-11 19:35:00,44.2,43.0,30.07,SSW,208,9.0,24.0,94,0.00,,,0.01,weatherlink.com 1.10,2013-01-12 00:35:00,
2013-01-11 19:50:00,43.9,43.0,30.07,SSE,163,11.0,17.0,95,0.00,,,0.01,weatherlink.com 1.10,2013-01-12 00:50:00,
2013-01-11 20:05:00,44.5,44.0,30.07,SSW,198,7.0,17.0,96,0.00,,,0.01,weatherlink.com 1.10,2013-01-12 01:05:00,
2013-01-11 20:20:00,45.2,44.0,30.07,WSW,240,5.0,18.0,95,0.00,,,0.01,weatherlink.com 1.10,2013-01-12 01:20:00,
2013-01-11 20:35:00,44.5,43.0,30.08,SW,217,6.0,16.0,94,0.00,,,0.01,weatherlink.com 1.10,2013-01-12 01:35:00,
2013-01-11 20:51:00,44.5,43.0,30.08,SW,222,8.0,20.0,95,0.00,,,0.01,weatherlink.com 1.10,2013-01-12 01:51:00,
2013-01-11 21:05:00,45.0,44.0,30.08,SW,234,7.0,20.0,96,0.00,,,0.01,weatherlink.com 1.10,2013-01-12 02:05:00,
2013-01-11 21:20:00,44.9,44.0,30.08,SW,229,9.0,20.0,96,0.00,,,0.01,weatherlink.com 1.10,2013-01-12 02:20:00,
2013-01-11 21:36:00,44.9,44.0,30.08,SW,216,16.0,21.0,96,0.00,,,0.01,weatherlink.com 1.10,2013-01-12 02:36:00,
2013-01-11 21:51:00,45.6,45.0,30.08,WSW,240,16.0,22.0,97,0.00,,,0.01,weatherlink.com 1.10,2013-01-12 02:51:00,
2013-01-11 22:06:00,46.4,46.0,30.07,South,178,9.0,19.0,97,0.00,,,0.01,weatherlink.com 1.10,2013-01-12 03:06:00,
2013-01-11 22:21:00,48.4,47.0,30.07,South,176,10.0,20.0,94,0.00,,,0.01,weatherlink.com 1.10,2013-01-12 03:21:00,
2013-01-11 22:36:00,50.2,47.0,30.07,SSW,212,13.0,20.0,89,0.00,,,0.01,weatherlink.com 1.10,2013-01-12 03:36:00,
2013-01-11 22:51:00,54.2,51.0,30.07,SW,217,6.0,19.0,87,0.00,,,0.01,weatherlink.com 1.10,2013-01-12 03:51:00,
2013-01-11 23:06:00,56.7,51.0,30.06,WSW,238,6.0,17.0,81,0.00,,,0.01,weatherlink.com 1.10,2013-01-12 04:06:00,
2013-01-11 23:21:00,56.3,51.0,30.07,SW,225,11.0,15.0,82,0.00,,,0.01,weatherlink.com 1.10,2013-01-12 04:21:00,
2013-01-11 23:36:00,55.6,50.0,30.07,SW,215,5.0,11.0,82,0.00,,,0.01,weatherlink.com 1.10,2013-01-12 04:36:00,
2013-01-11 23:51:00,54.9,50.0,30.07,SW,221,7.0,9.0,83,0.00,,,0.01,weatherlink.com 1.10,2013-01-12 04:51:00,